Location: Unspecified
(52.4292°N, 19.3359°E)
Time: 20:39:58
(UTC+02:00)

Vanguard 1 - Visible Passes

Search period start: 27 May 2024 00:00
Search period end: 06 June 2024 00:00
Orbit: 652 x 3825 km, 34.2° (Epoch: 25 May)

Date Brightness Start Highest point End Pass type
(mag) Time Alt. Az. Time Alt. Az. Time Alt. Az.
27 May 12.8 00:32:11 10° WSW 00:43:47 30° SSW 01:00:25 10° SSE visible
27 May 13.4 02:56:39 10° WSW 03:05:41 16° SW 03:16:09 10° SSW visible
27 May 12.4 22:32:21 10° WSW 22:41:56 34° S 22:57:18 10° SE visible
28 May 12.9 00:52:35 10° WSW 01:03:41 26° SSW 01:19:05 10° SSE visible
28 May 13.5 03:21:31 10° SW 03:25:19 11° SW 03:29:21 10° SSW visible
28 May 12.4 22:52:15 10° WSW 23:01:50 32° S 23:16:55 10° SE visible
29 May 13.0 01:13:17 10° WSW 01:23:33 22° SSW 01:37:12 10° SSE visible
29 May 12.6 23:12:18 10° WSW 23:21:45 29° SSW 23:34:42 13° SE visible
30 May 13.2 01:34:34 10° WSW 01:43:24 17° SSW 01:47:00 16° SSW visible
30 May 12.7 23:32:30 10° WSW 23:41:41 26° SSW 23:50:50 17° SSE visible
31 May 13.3 01:57:08 10° WSW 02:03:12 13° SW 02:03:16 13° SW visible
31 May 12.2 21:33:05 10° SW 21:40:35 29° S 21:52:27 10° SE visible
31 May 12.8 23:52:58 10° WSW 00:01:36 22° SSW 00:07:52 18° S visible
01 Jun 12.3 21:53:00 10° WSW 22:00:27 27° S 22:11:59 10° SE visible
02 Jun 13.0 00:13:50 10° WSW 00:21:30 18° SSW 00:25:19 16° S visible
02 Jun 12.4 22:13:05 10° WSW 22:20:21 24° S 22:30:31 11° SSE visible
03 Jun 13.2 00:35:36 10° SW 00:41:23 14° SSW 00:43:03 13° SSW visible
03 Jun 12.6 22:33:22 10° WSW 22:40:15 21° SSW 22:48:24 12° SSE visible
04 Jun 12.8 22:54:01 10° SW 23:00:09 17° SSW 23:06:27 12° S visible
05 Jun 12.9 23:15:26 10° SW 23:20:04 13° SSW 23:24:36 11° S visible
